Amarillo, TX

8:05 PM CDT on September 16, 2019 (GMT -0500)
Amarillo International

Weather History for KAMA - May, 2019

Change the Weather History Date:

Thursday, May 2, 2019

  Actual Average Record
Temperature  
Mean Temperature 51 °F 61 °F  
Max Temperature 57 °F 76 °F 95 °F (2012)
Min Temperature 45 °F 47 °F 28 °F (2013)
Degree Days  
Heating Degree Days 14 5  
Month to date heating degree days 14 10  
Since 1 July heating degree days 3997 4098  
Cooling Degree Days 0 1  
Month to date cooling degree days 2 2  
Year to date cooling degree days 18 23  
Growing Degree Days 2 (Base 50)    
Moisture  
Dew Point 48 °F    
Average Humidity 85    
Maximum Humidity 93    
Minimum Humidity 77    
Precipitation  
Precipitation T in 0.05 in 3.30 in (2007)
Month to date precipitation T 0.10  
Year to date precipitation 4.09 4.17  
Snow  
Snow 0.00 in 0.00 in 4.70 in (2005)
Month to date snowfall 0.0 0.0  
Since 1 July snowfall 8.1 17.6  
Snow Depth 0.00 in    
Sea Level Pressure  
Sea Level Pressure 30.03 in    
Wind  
Wind Speed 14 mph (NNE)    
Max Wind Speed 33 mph    
Max Gust Speed 41 mph    
Visibility 6 miles    
Events      
T = Trace of Precipitation, MM = Missing Value Source: NWS Daily Summary

Daily Weather History Graph

Daily Weather History Graph

Search for Another Location

Airport or City:

Astronomy

May. 02, 2019 Rise Set
Actual Time 6:54 AM CDT 8:33 PM CDT
Civil Twilight 6:27 AM CDT 9:00 PM CDT
Nautical Twilight 5:54 AM CDT 9:33 PM CDT
Astronomical Twilight 5:20 AM CDT 10:08 PM CDT
Moon 5:59 AM CDT (5/2) 6:30 PM CDT (5/2)
Length of Visible Light 14h 33m
Length of Day
13h 38m
Waning Crescent, 5% of the Moon is Illuminated
May 2
Waning Crescent
May 4
New
May 11
First Quarter
May 18
Full
May 26
Last Quarter

Hourly Weather History & Observations

Time (CDT) Temp. Windchill Dew Point Humidity Pressure Visibility Wind Dir Wind Speed Gust Speed Precip Events Conditions
12:03 AM 63.0 °F - 61.0 °F 93% 29.94 in 5.0 mi North 18.4 mph - N/A   Scattered Clouds
12:11 AM 64.0 °F - 60.1 °F 87% 29.95 in 6.0 mi WNW 9.2 mph - N/A   Mostly Cloudy
12:20 AM 64.0 °F - 60.1 °F 87% 29.95 in 8.0 mi North 8.1 mph - N/A   Mostly Cloudy
12:46 AM 55.0 °F - 53.1 °F 93% 29.97 in 2.0 mi North 24.2 mph 38.0 mph N/A   Overcast
12:50 AM 53.6 °F - 51.8 °F 94% 29.97 in 1.0 mi North 25.3 mph 38.0 mph N/A   Overcast
12:53 AM 53.1 °F - 52.0 °F 96% 29.88 in 0.8 mi North 23.0 mph 32.2 mph N/A   Overcast
1:08 AM 52.0 °F - 51.1 °F 97% 29.99 in 1.2 mi NNE 32.2 mph 38.0 mph N/A   Overcast
1:22 AM 52.0 °F - 50.0 °F 93% 30.00 in 2.5 mi North 27.6 mph 39.1 mph N/A   Overcast
1:33 AM 52.0 °F - 50.0 °F 93% 30.00 in 3.0 mi NNE 26.5 mph 40.3 mph N/A   Overcast
1:53 AM 51.1 °F - 48.9 °F 92% 29.91 in 4.0 mi NNE 26.5 mph 33.4 mph N/A   Overcast
2:53 AM 51.1 °F - 48.9 °F 92% 29.91 in 3.0 mi NNE 25.3 mph 34.5 mph N/A   Overcast
3:25 AM 50.0 °F - 48.0 °F 93% 30.03 in 6.0 mi NNE 27.6 mph 34.5 mph N/A   Overcast
3:53 AM 48.9 °F - 46.9 °F 93% 29.93 in 3.0 mi North 21.9 mph 32.2 mph N/A   Overcast
4:05 AM 48.0 °F - 46.0 °F 93% 30.04 in 2.0 mi North 21.9 mph 31.1 mph N/A   Overcast
4:22 AM 48.0 °F - 46.0 °F 93% 30.05 in 4.0 mi NNE 24.2 mph 32.2 mph N/A   Overcast
4:30 AM 48.0 °F - 46.0 °F 93% 30.06 in 4.0 mi NNE 23.0 mph - N/A   Overcast
4:53 AM 48.0 °F - 45.0 °F 89% 29.96 in 4.0 mi NNE 25.3 mph 38.0 mph 0.00 in   Overcast
5:12 AM 46.9 °F - 45.0 °F 93% 30.08 in 2.5 mi North 19.6 mph 28.8 mph N/A   Overcast
5:24 AM 46.9 °F - 45.0 °F 93% 30.08 in 3.0 mi NNE 20.7 mph 28.8 mph N/A   Overcast
5:48 AM 46.4 °F 39.5 °F 44.6 °F 93% 30.10 in 9.0 mi NNE 17.3 mph - N/A   Overcast
5:53 AM 46.9 °F - 44.1 °F 90% 29.99 in 9.0 mi NNE 18.4 mph - N/A   Overcast
6:53 AM 46.0 °F 38.3 °F 44.1 °F 93% 30.01 in 10.0 mi NNE 20.7 mph 28.8 mph N/A   Overcast
7:08 AM 46.0 °F 38.3 °F 44.1 °F 93% 30.11 in 8.0 mi North 20.7 mph 28.8 mph N/A   Overcast
7:27 AM 46.0 °F 38.3 °F 44.1 °F 93% 30.11 in 7.0 mi NNE 20.7 mph - N/A   Overcast
7:51 AM 46.4 °F 39.5 °F 44.6 °F 93% 30.12 in 1.0 mi NNE 17.3 mph - N/A   Overcast
7:53 AM 46.0 °F 39.3 °F 45.0 °F 96% 30.04 in 1.0 mi NNE 16.1 mph - N/A   Overcast
7:56 AM 46.0 °F 38.8 °F 45.0 °F 96% 30.13 in 0.2 mi North 18.4 mph - N/A   Overcast
8:06 AM 46.0 °F 38.5 °F 44.1 °F 93% 30.14 in 0.2 mi North 19.6 mph - N/A   Overcast
8:16 AM 46.0 °F 38.5 °F 44.1 °F 93% 30.14 in 1.5 mi NNE 19.6 mph - N/A   Overcast
8:53 AM 46.0 °F 40.2 °F 44.1 °F 93% 30.07 in 0.5 mi North 12.7 mph - N/A   Overcast
9:46 AM 46.0 °F 39.3 °F 44.1 °F 93% 30.15 in 3.0 mi NNE 16.1 mph - N/A   Overcast
9:53 AM 46.0 °F 39.3 °F 44.1 °F 93% 30.09 in 3.0 mi NNE 16.1 mph - N/A   Overcast
10:53 AM 46.0 °F 39.9 °F 44.1 °F 93% 30.09 in 9.0 mi NNE 13.8 mph - N/A   Overcast
11:24 AM 46.9 °F - 45.0 °F 93% 30.16 in 10.0 mi North 12.7 mph - N/A   Overcast
11:32 AM 46.9 °F - 45.0 °F 93% 30.16 in 10.0 mi North 11.5 mph - N/A   Overcast
11:53 AM 46.9 °F - 45.0 °F 93% 30.09 in 10.0 mi North 12.7 mph - N/A   Overcast
12:08 PM 48.0 °F - 45.0 °F 89% 30.16 in 10.0 mi North 11.5 mph - N/A   Overcast
12:53 PM 48.9 °F - 46.0 °F 90% 30.09 in 10.0 mi NE 9.2 mph - N/A   Overcast
1:27 PM 50.0 °F - 46.0 °F 86% 30.13 in 10.0 mi NE 9.2 mph - N/A   Overcast
1:53 PM 50.0 °F - 46.0 °F 86% 30.07 in 8.0 mi NE 5.8 mph - N/A   Overcast
2:53 PM 52.0 °F - 46.0 °F 80% 30.04 in 10.0 mi NE 5.8 mph - N/A   Overcast
3:29 PM 53.1 °F - 46.0 °F 77% 30.07 in 10.0 mi Variable 3.5 mph - N/A   Overcast
3:53 PM 54.0 °F - 46.9 °F 77% 30.01 in 10.0 mi East 6.9 mph - N/A   Overcast
4:53 PM 55.9 °F - 48.0 °F 75% 29.97 in 10.0 mi ESE 4.6 mph - N/A   Overcast
5:20 PM 55.0 °F - 48.0 °F 77% 30.02 in 10.0 mi Variable 3.5 mph - N/A   Overcast
5:53 PM 55.9 °F - 48.0 °F 75% 29.96 in 10.0 mi ESE 4.6 mph - N/A   Overcast
6:53 PM 55.9 °F - 48.9 °F 77% 29.95 in 10.0 mi SE 8.1 mph - N/A   Overcast
7:53 PM 55.9 °F - 48.9 °F 77% 29.96 in 10.0 mi SE 9.2 mph - N/A   Overcast
8:53 PM 55.0 °F - 48.9 °F 80% 29.96 in 10.0 mi SSE 10.4 mph - N/A   Overcast
9:53 PM 55.0 °F - 48.9 °F 80% 29.96 in 10.0 mi SSE 10.4 mph - N/A   Overcast
10:53 PM 53.1 °F - 48.9 °F 86% 29.95 in 10.0 mi SE 11.5 mph - N/A   Mostly Cloudy
11:08 PM 53.1 °F - 50.0 °F 89% 30.00 in 10.0 mi SE 13.8 mph - N/A   Mostly Cloudy
11:22 PM 53.1 °F - 50.0 °F 89% 30.00 in 10.0 mi SE 18.4 mph - N/A   Overcast
11:53 PM 53.1 °F - 51.1 °F 93% 29.95 in 4.0 mi SE 12.7 mph - N/A   Overcast